This demonstration page uses our WeatherBlox Daily Observations layout. Learn more.

Left ArrowRight Arrow

Hourly Observations for December 4, 2015

Temp ( °F °C ) Dew Point ( °F °C ) Humidity (%) Winds ( mph kmh ) Pressure ( in mb ) Visibility ( mi km ) Precip ( " mm )
12:53 am 00:53 Clear 35 1.7 31 -0.6 85 85 Calm 30.36 1028 10 16 0.00 0.00
1:53 am 01:53 Clear 32 0 29 -1.7 88 88 Calm 30.37 1029 10 16 0.00 0.00
2:53 am 02:53 Clear 32 0 29 -1.7 88 88 NE 3 6 30.40 1029 10 16 0.00 0.00
3:53 am 03:53 Clear 31 -0.6 29 -1.7 92 92 Calm 30.41 1030 10 16 0.00 0.00
4:45 am 04:45 Clear 31 -0.6 28 -2.2 89 89 Calm 30.45 1031 2 2 0.00 0.00
4:53 am 04:53 Clear 31 -0.6 29 -1.7 92 92 Calm 30.42 1030 10 16 0.00 0.00
5:00 am 05:00 Clear with Mist and Fog 30 -1 28 -2 93 93 Calm 30.45 1031 1 2 0.00 0.00
5:10 am 05:10 Clear 31 -0.6 29 -1.7 92 92 Calm 30.45 1031 10 16 0.00 0.00
5:53 am 05:53 Clear 31 -0.6 28 -2.2 89 89 Calm 30.43 1031 10 16 0.00 0.00
6:53 am 06:53 Clear 31 -0.6 28 -2.2 89 89 Calm 30.46 1032 10 16 0.00 0.00
7:53 am 07:53 Sunny 31 -0.6 28 -2.2 89 89 Calm 30.48 1032 10 16 0.00 0.00
8:53 am 08:53 Sunny 39 3.9 32 0 76 76 NNE 7 11 30.50 1033 10 16 0.00 0.00
9:53 am 09:53 Sunny 45 7.2 29 -1.7 54 54 NE 8 13 30.51 1033 10 16 0.00 0.00
10:53 am 10:53 Sunny 49 9.4 26 -3.3 41 41 ENE 12 19 30.51 1033 10 16 0.00 0.00
11:53 am 11:53 Sunny 51 10.6 24 -4.4 35 35 ENE 13 20 30.50 1033 10 16 0.00 0.00
12:53 pm 12:53 Sunny 53 11.7 25 -3.9 34 34 ESE 8 13 30.48 1032 10 16 0.00 0.00
1:53 pm 13:53 Sunny 55 12.8 24 -4.4 30 30 E 9 15 30.47 1032 10 16 0.00 0.00
2:53 pm 14:53 Sunny 56 13.3 24 -4.4 29 29 ENE 6 9 30.45 1031 10 16 0.00 0.00
3:53 pm 15:53 Sunny 57 13.9 24 -4.4 28 28 NE 8 13 30.46 1032 10 16 0.00 0.00
4:53 pm 16:53 Sunny 55 12.8 25 -3.9 31 31 NE 5 7 30.46 1032 10 16 0.00 0.00
5:53 pm 17:53 Clear 50 10 27 -2.8 41 41 Calm 30.47 1032 10 16 0.00 0.00
6:53 pm 18:53 Clear 44 6.7 30 -1.1 58 58 Calm 30.48 1032 10 16 0.00 0.00
7:53 pm 19:53 Clear 39 3.9 31 -0.6 73 73 Calm 30.50 1033 10 16 0.00 0.00
8:53 pm 20:53 Clear 38 3.3 30 -1.1 73 73 Calm 30.50 1033 10 16 0.00 0.00
9:53 pm 21:53 Clear 36 2.2 32 0 86 86 Calm 30.51 1033 10 16 0.00 0.00
10:53 pm 22:53 Clear 34 1.1 31 -0.6 89 89 Calm 30.52 1034 10 16 0.00 0.00
11:53 pm 23:53 Clear 33 0.6 29 -1.7 85 85 Calm 30.53 1034 10 16 0.00 0.00

Powered by AerisWeather